This is the latest recevied weather packets stored in our database for station/object WA4ORT. If no packets are shown the sender has not sent any weather packets the latest 10 day(s).
| Time | Temp. | Humidity | Pressure | Rain* | Wind** | Luminosity | Snow |
|---|---|---|---|---|---|---|---|
| 1777448144 | 15.56° C | - | - | 0 mm | 1.79 m/s, 323° | - | - |
| 1777447246 | 15.56° C | - | - | 0 mm | 0.89 m/s, 20° | - | - |
| 1777446351 | 15.56° C | - | - | 0 mm | 0 m/s | - | - |
| 1777445457 | 16.11° C | - | - | 0 mm | 0 m/s | - | - |
| 1777444558 | 16.11° C | - | - | 0 mm | 0 m/s | - | - |
| 1777443665 | 16.11° C | - | - | 0 mm | 0 m/s | - | - |
| 1777442769 | 16.11° C | - | - | 0 mm | 0 m/s | - | - |
| 1777441871 | 16.11° C | - | - | 0 mm | 0.45 m/s, 146° | - | - |
| 1777440976 | 16.11° C | - | - | 0 mm | 0 m/s | - | - |
| 1777440082 | 16.11° C | - | - | 0 mm | 0 m/s | - | - |
| 1777439184 | 16.11° C | - | - | 0 mm | 0 m/s | - | - |
| 1777438289 | 16.11° C | - | - | 0 mm | 1.79 m/s, 28° | - | - |
| 1777437394 | 16.11° C | - | - | 0 mm | 0.89 m/s, 302° | - | - |
| 1777436496 | 15.56° C | - | - | 0 mm | 2.24 m/s, 129° | - | - |
| 1777435602 | 15.56° C | - | - | 0 mm | 1.34 m/s, 190° | - | - |
| 1777434707 | 16.11° C | - | - | 0 mm | 1.79 m/s, 207° | - | - |
| 1777433809 | 16.11° C | - | - | 0 mm | 0.45 m/s, 328° | - | - |
| 1777432914 | 16.11° C | - | - | 0 mm | 0.89 m/s, 322° | - | - |
| 1777432020 | 16.11° C | - | - | 0 mm | 0 m/s | - | - |
| 1777431122 | 16.11° C | - | - | 0 mm | 0.89 m/s, 350° | - | - |
| 1777430227 | 16.11° C | - | - | 0 mm | 0.45 m/s, 339° | - | - |
| 1777429332 | 16.11° C | - | - | 0 mm | 0.89 m/s, 346° | - | - |
| 1777428434 | 16.11° C | - | - | 0 mm | 1.79 m/s, 347° | - | - |
| 1777427539 | 16.11° C | - | - | 0 mm | 1.79 m/s, 318° | - | - |
| 1777426645 | 16.11° C | - | - | 0 mm | 1.34 m/s, 325° | - | - |
* Rain latest hour (hover to see other rain measurements)
** Current wind speed in m/s (hover to see current wind gust speed)